SCP
0 0 0 0 0 0 0 0 0 0 0 0 0 0 0 0 0 0 0 0 0 0 -0 -0 -0 -0 -0 -0 -0 -0 -0 -0 -0 -0 -0 -0 -0 -0 -0 -0 -0 -0 -0 -0 -0 -0 -0 -0 -0
0 0 0 0 0 0 0 0 0 0 0 0 0 0 0 0 0 0 0 0 0 0 0 -0 -0 -0 -0 -0 -0 -0 -0 -0 -0 -0 -0 -0 -0 -0 -0 -0 -0 -0 -0 -0 -0 -0 -0 -0 -0
0 0 0 0 0 0 0 0 0 0 0 0 0 0 0 0 0 0 0 0 0 0 0 0 -0 0 -0 -0 -0 -0 -0 -0 -0 -0 -0 -0 -0 -0 -0 -0 -0 -0 -0 -0 -0 -0 -0 -0 -0
0 0 0 0 0 0 0 0 0 0 0 0 0 0 0 0 0 0 0 0 0 0 0 0 -0 0 -0 -0 -0 -0 -0 -0 -0 -0 -0 -0 -0 -0 -0 -0 -0 -0 -0 -0 -0 -0 -0 -0 0
0 0 0 0 0 0 0 0 0 0 0 0 0 0 0 0 0 0 0 0 0 0 0 0 0 -0 -0 -0 -0 -0 -0 -0 -0 -0 -0 -0 -0 -0 -0 -0 -0 -0 -0 -0 -0 -0 -0 -0 0
0 0 0 0 0 0 0 0 0 0 0 0 0 0 0 0 0 0 0 0 0 0 0 0 0 0 -0 -0 -0 -0 -0 -0 -0 -0 -0 -0 -0 -0 -0 -0 -0 -0 -0 -0 -0 -0 -0 -0 -0
0 0 0 0 0 0 0 0 0 0 0 0 0 0 0 0 0 0 0 0 0 0 0 0 0 0 0 0 0 0 -0 -0 -0 -0 -0 -0 -0 -0 -0 -0 -0 -0 -0 -0 -0 -0 0 -0 0
0 0 0 0 0 0 0 0 0 0 0 0 0 0 0 0 0 0 0 0 0 0 0 0 0 0 0 0 0 0 0 0 0 0 0 0 -0 -0 -0 -0 -0 -0 -0 -0 0 0 0 0 0
0 -0 0 0 0 0 0 0 0 0 0 0 0 0 0 0 0 0 0 0 0 0 0 0 0 0 0 0 0 0 0 0 0 0 0 0 0 0 0 0 -0 0 0 0 0 0 0 0 0
-0 0 -0 0 0 0 0 0 0 0 0 0 0 0 0 0 0 0 0 0 0 0 0 0 0 0 0 0 0 0 0 0 0 0 0 0 0 0 0 0 0 0 0 0 0 0 0 0 0
0 -0 0 -0 0 0 0 0 0 0 0 0 0 0 0 0 0 0 0 0 0 0 0 0 0 0 0 0 0 0 0 0 0 0 0 0 0 0 0 0 0 0 0 0 0 0 0 0 0
0 0 0 0 0 0 0 0 0 0 0 0 0 0 0 0 0 0 0 0 0 0 0 0 0 0 0 0 0 0 0 0 0 0 0 0 0 0 0 0 0 0 0 0 0 0 0 0 0
0 0 0 -0 0 -0 0 0 -0 0 0 0 0 0 0 0 0 0 0 0 0 0 0 0 0 0 0 0 0 0 0 0 0 0 0 0 0 0 0 0 0 0 0 0 0 0 0 0 0
0 0 -0 0 0 0 -0 -0 -0 -0 0 0 0 0 0 0 0 0 0 0 0 0 0 0 0 0 0 0 0 0 0 0 0 0 0 0 0 0 0 0 0 0 0 0 0 0 0 0 0
0 0 0 -0 0 0 0 0 0 -0 -0 0 0 0 0 0 0 0 0 0 0 0 0 0 0 0 0 0 0 0 0 0 0 0 0 0 0 0 0 0 0 0 0 0 0 0 0 0 0
0 0 0 -0 -0 -0 -0 0 0 0 -0 -0 -0 -0 -0 -0 -0 0 0 0 0 0 0 0 0 0 0 0 0 0 0 0 0 0 0 0 0 0 0 0 0 0 0 0 0 0 0 0 0
0 0 0 0 -0 -0 -0 -0 -0 0 0 0 -0 -0 0 0 -0 -0 -0 -0 0 0 0 0 0 0 0 0 0 0 0 0 0 0 0 0 0 0 0 0 0 0 0 0 0 0 0 0 0
0 0 0 0 0 0 -0 -0 -0 0 0 0 -0 -0 -0 -0 0 -0 -0 -0 0 0 0 0 0 0 0 0 0 0 0 0 0 0 0 0 0 0 0 0 0 0 0 0 -0 -0 0 0 0
0 0 0 0 0 0 0 0 -0 -0 -0 0 0 -0 -0 -0 -0 0 0 -0 -0 -0 -0 -0 -0 -0 -0 0 0 0 0 0 0 0 0 0 0 0 0 0 0 0 0 -0 -0 -0 -0 0 0
0 0 0 0 0 0 0 0 0 0 0 0 -0 -0 0 0 0 0 0 -0 -0 -0 -0 -0 -0 -0 0 0 0 0 0 0 0 0 0 0 0 0 0 0 0 0 0 0 0 -0 -0 -0 -0
0 0 0 0 0 0 0 0 0 0 0 0 0 0 0 -0 -0 -0 -0 -0 -0 -0 -0 -0 0 0 0 0 0 0 0 0 0 0 0 0 0 0 0 0 0 0 -0 -0 -0 -0 -0 -0 -0
0 0 0 0 0 0 0 0 0 0 0 0 0 0 0 0 -0 -0 -0 0 0 -0 -0 0 0 0 0 0 0 0 0 0 0 0 0 0 0 0 0 0 0 0 -0 -0 -0 -0 -0 -0 -0
0 0 0 0 0 0 0 0 0 0 0 -0 -0 -0 -0 -0 -0 -0 -0 -0 -0 0 0 0 0 0 0 0 0 0 0 0 0 0 0 0 0 0 0 0 0 0 0 -0 -0 -0 -0 -0 -0
0 0 0 0 0 0 0 0 0 0 0 0 0 -0 -0 -0 -0 -0 0 0 0 0 0 0 0 0 0 0 0 0 0 0 0 0 0 0 0 0 0 0 0 0 0 0 0 -0 -0 -0 -0
0 0 0 0 0 0 0 0 0 0 0 0 0 0 0 0 0 0 0 0 0 0 0 0 0 0 0 0 0 0 0 0 0 0 0 0 0 0 0 0 0 0 0 0 0 0 0 0 0
0 0 0 0 0 0 0 0 0 0 0 0 0 0 0 0 0 0 0 0 0 0 0 0 0 0 0 0 0 0 0 0 0 0 0 0 0 0 0 0 0 0 0 0 0 0 0 0 0
0 0 0 0 0 0 0 0 0 0 0 0 0 0 0 0 0 0 0 0 0 0 0 0 0 0 0 0 0 0 0 0 0 0 0 0 0 0 0 0 0 0 0 0 0 0 0 0 0
0 0 0 0 0 0 0 0 0 0 0 0 0 0 0 0 0 0 0 0 0 0 0 0 0 0 0 0 0 0 0 0 0 0 0 0 0 0 0 0 0 0 0 0 0 0 0 0 0
0 0 0 0 0 0 0 0 0 0 0 0 0 0 0 0 0 0 0 0 0 0 0 0 0 0 0 0 0 0 0 0 0 0 0 0 0 0 0 0 0 0 0 0 0 0 0 0 0
0 0 0 0 0 0 0 0 0 0 0 0 0 0 0 0 0 0 0 0 0 0 0 0 0 0 0 0 0 0 0 0 0 0 0 0 0 0 0 0 0 0 0 0 0 0 0 0 0
Wind_Speed_500mb
14 9 7 16 6 7 7 6 3 12 7 7 11 10 16 17 9 3 3 8 14 23 40 41 33 18 37 27 15 20 26 28 29 32 32 29 26 24 25 25 26 25 19 11 11 13 6 5 6
9 4 14 3 9 10 5 5 16 14 4 13 14 8 15 11 14 8 2 9 14 24 36 45 54 57 46 33 32 31 35 35 36 36 32 30 27 23 19 17 14 9 4 7 14 13 7 6 4
6 8 13 3 3 9 10 10 9 8 18 7 9 18 9 11 13 11 15 8 10 21 30 46 59 54 53 40 32 31 30 31 32 31 29 29 26 20 16 12 9 5 3 4 14 14 11 6 4
4 6 15 7 7 6 6 11 17 1 5 18 16 18 15 21 10 19 15 3 8 15 24 43 48 52 44 41 36 32 28 25 22 21 19 18 15 12 8 7 6 5 5 7 9 10 10 9 6
7 4 9 10 8 7 12 10 19 8 7 16 3 11 11 10 12 16 11 2 9 12 19 32 42 39 35 32 32 27 24 22 19 16 14 13 11 9 8 6 4 5 6 5 5 7 7 6 5
5 6 8 7 9 6 8 19 5 16 15 7 8 13 8 12 6 15 12 2 5 13 15 19 35 40 37 31 26 24 22 22 19 14 10 7 5 3 3 3 5 6 7 7 5 5 5 6 5
10 7 9 10 11 6 3 9 9 8 15 14 4 8 9 8 10 13 14 9 4 8 13 15 18 25 25 29 27 24 21 19 17 10 8 5 3 3 5 6 7 9 10 8 8 6 6 7 8
12 8 9 13 3 4 3 7 5 18 11 7 8 7 6 8 12 12 14 18 16 10 10 12 13 21 21 24 24 28 28 22 16 8 4 2 2 6 8 10 10 13 14 12 15 13 14 7 7
11 9 8 10 7 6 3 3 14 13 17 16 16 14 12 10 13 10 19 20 27 20 15 18 13 15 16 18 28 26 27 19 12 4 3 3 7 5 6 8 9 11 14 17 13 18 13 13 13
19 10 8 9 6 9 14 6 11 5 4 13 14 12 14 18 14 18 20 25 30 33 29 24 19 19 25 23 25 26 24 28 16 11 7 3 5 4 10 13 12 13 12 10 12 11 10 9 9
17 10 8 18 19 13 12 16 8 12 11 10 7 13 15 14 21 19 26 24 32 33 34 32 31 27 29 29 26 28 24 25 21 19 17 13 14 16 14 14 14 13 13 12 11 10 9 10 9
19 31 13 7 10 5 5 10 16 16 10 7 6 12 12 14 18 21 23 25 25 30 32 34 32 32 30 28 27 27 25 23 22 21 17 15 13 13 14 13 16 16 18 19 18 18 19 17 16
26 24 30 38 38 38 31 26 14 16 18 13 9 8 14 17 19 20 22 25 24 25 27 31 29 31 30 27 31 29 26 23 25 20 19 17 17 18 21 22 20 22 24 25 26 25 23 20 18
17 28 26 17 19 17 10 10 8 4 13 12 9 8 8 18 21 24 26 27 27 28 30 31 29 31 28 29 27 28 29 26 21 23 23 23 22 23 24 23 24 25 28 30 30 29 27 25 21
25 12 10 12 5 6 3 5 5 12 9 10 4 8 7 11 20 23 27 31 35 33 30 31 34 34 29 27 29 27 26 25 23 23 24 26 25 25 24 25 27 31 30 29 31 33 33 29 26
2 6 9 13 22 3 7 5 10 10 7 2 4 9 9 10 15 18 21 21 28 34 36 34 34 32 29 27 22 23 25 22 21 22 22 23 24 26 25 27 30 33 31 31 32 34 37 36 32
16 6 8 8 12 7 7 5 8 18 20 15 11 12 14 15 16 16 19 23 23 23 24 27 31 32 30 31 27 24 21 18 17 18 19 20 21 24 26 28 31 31 33 35 39 40 40 41 40
5 7 4 5 11 9 11 10 9 25 24 22 18 16 20 22 20 20 22 26 28 26 23 21 21 22 21 19 14 11 16 15 14 15 16 18 20 22 24 26 29 31 34 39 44 46 48 48 47
13 8 3 5 3 4 6 10 15 31 32 33 32 30 29 27 23 26 26 26 30 33 35 34 31 27 24 23 22 21 18 16 13 12 14 15 17 21 23 25 28 32 36 41 44 48 52 56 59
8 5 6 8 5 1 9 25 20 34 33 47 43 41 40 34 33 34 34 32 29 29 29 28 28 28 26 24 21 19 18 15 13 10 9 9 12 15 18 23 27 32 35 37 42 47 53 58 62
8 7 2 5 10 5 17 11 8 13 44 47 51 50 47 47 45 43 45 42 38 38 35 34 32 31 27 25 24 23 21 18 12 8 3 3 6 11 15 19 25 29 34 39 44 45 48 52 53
4 2 2 5 8 3 12 8 11 9 15 31 61 63 62 58 52 48 48 48 47 41 38 37 37 33 31 31 29 27 22 18 14 11 8 7 5 9 14 19 22 26 32 35 37 42 45 47 47
5 2 3 3 6 5 11 6 13 4 14 30 54 79 75 68 62 58 57 53 48 44 46 43 41 39 37 34 32 30 27 23 23 20 16 13 9 10 14 17 20 23 28 31 35 37 39 40 42
6 3 5 5 4 6 8 6 12 11 14 9 41 79 84 79 73 66 59 53 53 52 54 53 50 46 43 43 40 36 33 30 29 26 22 18 15 14 16 19 21 25 27 28 30 32 34 37 39
5 7 7 11 9 8 2 3 23 13 16 14 23 68 83 82 80 76 73 71 67 67 65 62 59 56 53 51 48 43 39 36 33 30 27 24 22 18 21 23 24 25 27 29 32 34 35 38 38
6 3 9 9 5 9 5 13 12 15 13 33 44 28 57 81 83 85 81 77 73 71 69 68 67 64 60 58 53 48 45 44 40 36 34 31 28 24 25 28 28 29 31 32 36 37 38 40 42
2 2 2 14 3 5 7 15 23 11 24 35 37 49 51 69 87 90 87 84 81 79 76 73 70 67 64 61 58 57 54 52 46 40 39 38 33 31 32 33 33 33 36 37 40 42 43 44 46
5 9 7 6 5 11 11 12 16 11 15 13 25 56 65 62 78 91 92 91 88 84 78 74 74 72 66 68 67 64 62 55 49 47 46 42 37 37 37 36 36 38 40 41 44 45 47 48 49
5 5 6 5 8 9 5 12 17 20 18 17 33 57 61 65 72 86 95 96 94 90 88 86 83 79 77 75 73 71 65 60 54 54 50 46 42 39 40 38 40 42 43 45 48 49 50 53 55
7 14 13 9 12 7 4 27 10 17 3 11 28 39 54 66 70 73 83 93 97 99 98 97 95 92 86 79 75 75 68 64 63 60 55 49 46 43 43 42 44 45 46 48 52 53 53 56 58
Wind_Direction_500mb
306 268 173 159 132 82 137 85 360 97 70 75 72 51 91 61 26 96 331 125 89 83 91 98 83 135 142 146 136 115 104 107 105 109 110 108 106 111 119 118 113 104 93 68 47 14 41 98 69
308 226 182 118 136 176 161 9 92 56 25 113 88 48 51 72 26 354 87 331 110 109 96 102 78 50 124 120 114 105 100 95 94 91 95 103 108 106 122 130 136 129 110 360 3 33 54 127 126
296 186 154 118 124 196 128 44 37 60 36 89 94 69 60 14 355 352 326 332 141 120 109 103 95 86 96 118 121 124 128 122 113 107 106 108 112 120 127 148 170 213 295 55 69 65 81 96 76
253 142 81 86 62 39 62 27 357 22 360 50 95 65 82 34 360 338 336 258 157 141 120 119 116 112 116 121 123 132 130 119 116 108 99 95 104 109 112 130 140 111 93 89 81 64 65 74 81
206 130 82 73 92 92 58 11 17 51 39 21 32 124 78 20 13 336 345 303 183 159 140 131 143 146 144 145 147 145 131 119 112 104 94 89 85 89 95 93 78 56 50 47 53 47 44 44 53
102 77 74 105 92 105 70 19 346 43 30 20 68 104 89 20 19 15 13 34 180 171 170 164 149 159 172 173 164 156 147 139 131 117 99 89 80 53 17 9 5 4 7 3 360 5 24 20 24
71 58 78 96 117 93 9 55 27 14 28 18 47 86 111 38 58 25 73 55 83 160 173 182 188 177 192 183 182 171 161 151 140 142 137 131 79 352 334 326 311 329 314 307 313 321 337 353 351
73 84 78 38 95 88 342 89 76 37 37 9 20 95 100 51 76 46 79 92 91 111 136 152 190 209 195 197 199 183 171 170 164 175 161 180 307 301 313 307 311 319 322 317 315 310 305 322 347
62 64 58 28 26 116 134 188 70 73 77 61 50 75 116 105 101 92 102 92 100 97 111 124 145 162 177 191 193 187 172 164 133 161 144 72 332 10 11 354 344 343 358 349 341 330 338 325 312
56 67 50 352 26 94 74 100 117 104 94 71 78 72 121 138 129 117 107 96 88 93 97 98 113 120 124 135 144 144 142 130 121 124 105 95 64 16 38 46 43 24 28 23 24 14 2 330 317
39 89 148 56 92 102 107 72 109 139 49 46 92 89 97 132 153 142 104 100 96 90 95 98 96 95 95 111 106 102 101 106 115 109 100 84 73 74 65 62 61 53 46 31 27 21 10 9 8
92 56 77 67 60 93 84 99 76 75 111 89 100 126 119 126 138 128 125 107 110 109 96 96 99 96 97 103 108 99 103 104 106 95 88 90 89 81 75 62 52 47 46 42 35 30 33 30 32
75 100 92 101 92 86 87 77 101 76 87 81 89 125 153 156 128 129 121 115 109 110 111 104 105 105 100 101 106 111 109 106 96 93 86 82 82 77 75 71 66 62 57 51 49 46 43 42 46
111 107 123 109 86 92 117 148 139 110 104 75 51 95 144 171 150 147 137 130 123 117 117 114 112 106 108 109 106 107 103 99 99 100 96 86 79 77 69 68 66 62 55 52 51 48 47 47 49
139 89 110 45 79 101 254 64 89 142 135 101 141 98 114 144 173 162 154 148 139 130 121 122 117 110 110 110 109 108 105 104 103 96 90 84 77 70 66 64 64 60 57 56 56 54 49 44 44
72 57 25 344 358 7 323 258 211 199 167 196 196 170 165 151 144 151 166 158 150 148 143 140 134 131 126 119 112 111 106 104 98 92 87 80 70 65 60 55 54 48 45 44 47 49 47 40 39
22 70 30 326 29 320 360 245 216 199 207 231 233 204 199 188 170 153 146 169 157 154 150 147 143 138 138 131 130 125 113 102 100 93 83 77 71 64 55 52 50 44 38 35 36 33 36 38 34
5 47 21 5 323 5 349 301 271 206 220 240 245 231 224 220 201 188 178 171 171 170 170 169 165 163 162 149 144 127 130 136 116 101 91 75 65 57 50 45 44 42 38 35 31 28 26 27 30
122 103 88 288 321 307 275 266 249 224 231 241 239 237 233 226 217 210 200 195 184 179 179 174 169 167 164 159 159 160 158 149 133 112 89 74 61 52 44 38 34 34 32 31 28 24 23 21 20
46 80 360 277 323 302 345 283 247 212 233 236 237 233 230 225 222 218 210 204 196 190 186 185 183 183 182 180 174 175 172 167 158 136 100 72 54 40 34 32 29 29 28 26 26 25 23 22 20
36 89 359 211 319 93 323 287 232 234 231 241 241 239 235 227 220 216 215 209 204 200 194 192 193 194 192 190 191 193 191 187 189 174 156 54 31 24 17 22 22 22 22 22 21 20 21 21 19
59 262 274 360 21 310 21 287 279 233 243 224 236 230 228 225 223 222 220 217 214 206 205 203 204 202 202 204 203 206 210 211 216 219 230 252 316 355 3 7 8 11 15 15 14 14 13 14 12
153 72 37 54 74 60 358 66 274 344 255 236 226 228 226 223 222 221 219 219 219 214 216 214 214 214 214 217 217 218 218 220 225 230 237 254 282 319 339 342 348 357 3 4 4 4 3 4 3
140 164 70 56 83 34 265 109 276 200 216 233 218 224 222 220 219 220 221 221 220 218 220 220 221 221 222 224 226 227 229 231 234 239 243 252 270 290 304 315 331 343 344 346 346 348 350 349 351
28 49 348 358 10 224 181 13 248 246 231 227 224 225 222 220 219 219 217 217 216 217 218 220 222 222 224 228 230 232 235 238 241 244 249 254 261 274 289 301 311 320 325 329 331 332 334 331 333
7 102 144 243 271 273 8 238 247 214 239 243 248 245 234 226 224 223 221 220 220 220 221 222 223 225 225 229 231 233 236 239 244 246 251 254 261 268 277 288 299 306 311 315 317 318 319 318 322
274 31 106 99 104 24 246 279 287 241 253 237 240 231 232 226 225 226 224 224 223 222 223 225 226 228 226 230 232 233 234 235 240 244 249 253 259 267 271 279 289 295 301 305 307 310 311 312 315
166 153 62 7 322 299 279 278 240 277 267 228 230 232 231 230 226 227 228 228 228 228 228 228 229 231 231 230 231 233 234 235 237 238 244 251 255 259 265 272 282 288 292 297 299 303 305 306 308
148 207 55 124 153 206 291 252 216 222 239 239 242 240 239 232 231 229 228 230 231 232 231 231 231 230 230 230 231 234 234 236 239 242 244 248 252 255 262 271 278 284 288 291 292 296 299 302 304
183 189 169 138 231 233 174 268 180 236 204 224 272 268 258 246 242 240 237 234 233 233 234 234 233 234 233 233 234 235 236 236 239 242 246 248 252 255 263 270 277 283 287 289 289 292 295 298 300
Wind_Speed_850mb
14 9 7 16 6 7 7 6 3 12 7 7 11 10 16 17 9 3 3 8 14 23 40 41 33 18 37 27 15 20 26 28 29 32 32 29 26 24 25 25 26 25 19 11 11 13 6 5 6
9 4 14 3 9 10 5 5 16 14 4 13 14 8 15 11 14 8 2 9 14 24 36 45 54 57 46 33 32 31 35 35 36 36 32 30 27 23 19 17 14 9 4 7 14 13 7 6 4
6 8 13 3 3 9 10 10 9 8 18 7 9 18 9 11 13 11 15 8 10 21 30 46 59 54 53 40 32 31 30 31 32 31 29 29 26 20 16 12 9 5 3 4 14 14 11 6 4
4 6 15 7 7 6 6 11 17 1 5 18 16 18 15 21 10 19 15 3 8 15 24 43 48 52 44 41 36 32 28 25 22 21 19 18 15 12 8 7 6 5 5 7 9 10 10 9 6
7 4 9 10 8 7 12 10 19 8 7 16 3 11 11 10 12 16 11 2 9 12 19 32 42 39 35 32 32 27 24 22 19 16 14 13 11 9 8 6 4 5 6 5 5 7 7 6 5
5 6 8 7 9 6 8 19 5 16 15 7 8 13 8 12 6 15 12 2 5 13 15 19 35 40 37 31 26 24 22 22 19 14 10 7 5 3 3 3 5 6 7 7 5 5 5 6 5
10 7 9 10 11 6 3 9 9 8 15 14 4 8 9 8 10 13 14 9 4 8 13 15 18 25 25 29 27 24 21 19 17 10 8 5 3 3 5 6 7 9 10 8 8 6 6 7 8
12 8 9 13 3 4 3 7 5 18 11 7 8 7 6 8 12 12 14 18 16 10 10 12 13 21 21 24 24 28 28 22 16 8 4 2 2 6 8 10 10 13 14 12 15 13 14 7 7
11 9 8 10 7 6 3 3 14 13 17 16 16 14 12 10 13 10 19 20 27 20 15 18 13 15 16 18 28 26 27 19 12 4 3 3 7 5 6 8 9 11 14 17 13 18 13 13 13
19 10 8 9 6 9 14 6 11 5 4 13 14 12 14 18 14 18 20 25 30 33 29 24 19 19 25 23 25 26 24 28 16 11 7 3 5 4 10 13 12 13 12 10 12 11 10 9 9
17 10 8 18 19 13 12 16 8 12 11 10 7 13 15 14 21 19 26 24 32 33 34 32 31 27 29 29 26 28 24 25 21 19 17 13 14 16 14 14 14 13 13 12 11 10 9 10 9
19 31 13 7 10 5 5 10 16 16 10 7 6 12 12 14 18 21 23 25 25 30 32 34 32 32 30 28 27 27 25 23 22 21 17 15 13 13 14 13 16 16 18 19 18 18 19 17 16
26 24 30 38 38 38 31 26 14 16 18 13 9 8 14 17 19 20 22 25 24 25 27 31 29 31 30 27 31 29 26 23 25 20 19 17 17 18 21 22 20 22 24 25 26 25 23 20 18
17 28 26 17 19 17 10 10 8 4 13 12 9 8 8 18 21 24 26 27 27 28 30 31 29 31 28 29 27 28 29 26 21 23 23 23 22 23 24 23 24 25 28 30 30 29 27 25 21
25 12 10 12 5 6 3 5 5 12 9 10 4 8 7 11 20 23 27 31 35 33 30 31 34 34 29 27 29 27 26 25 23 23 24 26 25 25 24 25 27 31 30 29 31 33 33 29 26
2 6 9 13 22 3 7 5 10 10 7 2 4 9 9 10 15 18 21 21 28 34 36 34 34 32 29 27 22 23 25 22 21 22 22 23 24 26 25 27 30 33 31 31 32 34 37 36 32
16 6 8 8 12 7 7 5 8 18 20 15 11 12 14 15 16 16 19 23 23 23 24 27 31 32 30 31 27 24 21 18 17 18 19 20 21 24 26 28 31 31 33 35 39 40 40 41 40
5 7 4 5 11 9 11 10 9 25 24 22 18 16 20 22 20 20 22 26 28 26 23 21 21 22 21 19 14 11 16 15 14 15 16 18 20 22 24 26 29 31 34 39 44 46 48 48 47
13 8 3 5 3 4 6 10 15 31 32 33 32 30 29 27 23 26 26 26 30 33 35 34 31 27 24 23 22 21 18 16 13 12 14 15 17 21 23 25 28 32 36 41 44 48 52 56 59
8 5 6 8 5 1 9 25 20 34 33 47 43 41 40 34 33 34 34 32 29 29 29 28 28 28 26 24 21 19 18 15 13 10 9 9 12 15 18 23 27 32 35 37 42 47 53 58 62
8 7 2 5 10 5 17 11 8 13 44 47 51 50 47 47 45 43 45 42 38 38 35 34 32 31 27 25 24 23 21 18 12 8 3 3 6 11 15 19 25 29 34 39 44 45 48 52 53
4 2 2 5 8 3 12 8 11 9 15 31 61 63 62 58 52 48 48 48 47 41 38 37 37 33 31 31 29 27 22 18 14 11 8 7 5 9 14 19 22 26 32 35 37 42 45 47 47
5 2 3 3 6 5 11 6 13 4 14 30 54 79 75 68 62 58 57 53 48 44 46 43 41 39 37 34 32 30 27 23 23 20 16 13 9 10 14 17 20 23 28 31 35 37 39 40 42
6 3 5 5 4 6 8 6 12 11 14 9 41 79 84 79 73 66 59 53 53 52 54 53 50 46 43 43 40 36 33 30 29 26 22 18 15 14 16 19 21 25 27 28 30 32 34 37 39
5 7 7 11 9 8 2 3 23 13 16 14 23 68 83 82 80 76 73 71 67 67 65 62 59 56 53 51 48 43 39 36 33 30 27 24 22 18 21 23 24 25 27 29 32 34 35 38 38
6 3 9 9 5 9 5 13 12 15 13 33 44 28 57 81 83 85 81 77 73 71 69 68 67 64 60 58 53 48 45 44 40 36 34 31 28 24 25 28 28 29 31 32 36 37 38 40 42
2 2 2 14 3 5 7 15 23 11 24 35 37 49 51 69 87 90 87 84 81 79 76 73 70 67 64 61 58 57 54 52 46 40 39 38 33 31 32 33 33 33 36 37 40 42 43 44 46
5 9 7 6 5 11 11 12 16 11 15 13 25 56 65 62 78 91 92 91 88 84 78 74 74 72 66 68 67 64 62 55 49 47 46 42 37 37 37 36 36 38 40 41 44 45 47 48 49
5 5 6 5 8 9 5 12 17 20 18 17 33 57 61 65 72 86 95 96 94 90 88 86 83 79 77 75 73 71 65 60 54 54 50 46 42 39 40 38 40 42 43 45 48 49 50 53 55
7 14 13 9 12 7 4 27 10 17 3 11 28 39 54 66 70 73 83 93 97 99 98 97 95 92 86 79 75 75 68 64 63 60 55 49 46 43 43 42 44 45 46 48 52 53 53 56 58
Wind_Direction_850mb
306 268 173 159 132 82 137 85 360 97 70 75 72 51 91 61 26 96 331 125 89 83 91 98 83 135 142 146 136 115 104 107 105 109 110 108 106 111 119 118 113 104 93 68 47 14 41 98 69
308 226 182 118 136 176 161 9 92 56 25 113 88 48 51 72 26 354 87 331 110 109 96 102 78 50 124 120 114 105 100 95 94 91 95 103 108 106 122 130 136 129 110 360 3 33 54 127 126
296 186 154 118 124 196 128 44 37 60 36 89 94 69 60 14 355 352 326 332 141 120 109 103 95 86 96 118 121 124 128 122 113 107 106 108 112 120 127 148 170 213 295 55 69 65 81 96 76
253 142 81 86 62 39 62 27 357 22 360 50 95 65 82 34 360 338 336 258 157 141 120 119 116 112 116 121 123 132 130 119 116 108 99 95 104 109 112 130 140 111 93 89 81 64 65 74 81
206 130 82 73 92 92 58 11 17 51 39 21 32 124 78 20 13 336 345 303 183 159 140 131 143 146 144 145 147 145 131 119 112 104 94 89 85 89 95 93 78 56 50 47 53 47 44 44 53
102 77 74 105 92 105 70 19 346 43 30 20 68 104 89 20 19 15 13 34 180 171 170 164 149 159 172 173 164 156 147 139 131 117 99 89 80 53 17 9 5 4 7 3 360 5 24 20 24
71 58 78 96 117 93 9 55 27 14 28 18 47 86 111 38 58 25 73 55 83 160 173 182 188 177 192 183 182 171 161 151 140 142 137 131 79 352 334 326 311 329 314 307 313 321 337 353 351
73 84 78 38 95 88 342 89 76 37 37 9 20 95 100 51 76 46 79 92 91 111 136 152 190 209 195 197 199 183 171 170 164 175 161 180 307 301 313 307 311 319 322 317 315 310 305 322 347
62 64 58 28 26 116 134 188 70 73 77 61 50 75 116 105 101 92 102 92 100 97 111 124 145 162 177 191 193 187 172 164 133 161 144 72 332 10 11 354 344 343 358 349 341 330 338 325 312
56 67 50 352 26 94 74 100 117 104 94 71 78 72 121 138 129 117 107 96 88 93 97 98 113 120 124 135 144 144 142 130 121 124 105 95 64 16 38 46 43 24 28 23 24 14 2 330 317
39 89 148 56 92 102 107 72 109 139 49 46 92 89 97 132 153 142 104 100 96 90 95 98 96 95 95 111 106 102 101 106 115 109 100 84 73 74 65 62 61 53 46 31 27 21 10 9 8
92 56 77 67 60 93 84 99 76 75 111 89 100 126 119 126 138 128 125 107 110 109 96 96 99 96 97 103 108 99 103 104 106 95 88 90 89 81 75 62 52 47 46 42 35 30 33 30 32
75 100 92 101 92 86 87 77 101 76 87 81 89 125 153 156 128 129 121 115 109 110 111 104 105 105 100 101 106 111 109 106 96 93 86 82 82 77 75 71 66 62 57 51 49 46 43 42 46
111 107 123 109 86 92 117 148 139 110 104 75 51 95 144 171 150 147 137 130 123 117 117 114 112 106 108 109 106 107 103 99 99 100 96 86 79 77 69 68 66 62 55 52 51 48 47 47 49
139 89 110 45 79 101 254 64 89 142 135 101 141 98 114 144 173 162 154 148 139 130 121 122 117 110 110 110 109 108 105 104 103 96 90 84 77 70 66 64 64 60 57 56 56 54 49 44 44
72 57 25 344 358 7 323 258 211 199 167 196 196 170 165 151 144 151 166 158 150 148 143 140 134 131 126 119 112 111 106 104 98 92 87 80 70 65 60 55 54 48 45 44 47 49 47 40 39
22 70 30 326 29 320 360 245 216 199 207 231 233 204 199 188 170 153 146 169 157 154 150 147 143 138 138 131 130 125 113 102 100 93 83 77 71 64 55 52 50 44 38 35 36 33 36 38 34
5 47 21 5 323 5 349 301 271 206 220 240 245 231 224 220 201 188 178 171 171 170 170 169 165 163 162 149 144 127 130 136 116 101 91 75 65 57 50 45 44 42 38 35 31 28 26 27 30
122 103 88 288 321 307 275 266 249 224 231 241 239 237 233 226 217 210 200 195 184 179 179 174 169 167 164 159 159 160 158 149 133 112 89 74 61 52 44 38 34 34 32 31 28 24 23 21 20
46 80 360 277 323 302 345 283 247 212 233 236 237 233 230 225 222 218 210 204 196 190 186 185 183 183 182 180 174 175 172 167 158 136 100 72 54 40 34 32 29 29 28 26 26 25 23 22 20
36 89 359 211 319 93 323 287 232 234 231 241 241 239 235 227 220 216 215 209 204 200 194 192 193 194 192 190 191 193 191 187 189 174 156 54 31 24 17 22 22 22 22 22 21 20 21 21 19
59 262 274 360 21 310 21 287 279 233 243 224 236 230 228 225 223 222 220 217 214 206 205 203 204 202 202 204 203 206 210 211 216 219 230 252 316 355 3 7 8 11 15 15 14 14 13 14 12
153 72 37 54 74 60 358 66 274 344 255 236 226 228 226 223 222 221 219 219 219 214 216 214 214 214 214 217 217 218 218 220 225 230 237 254 282 319 339 342 348 357 3 4 4 4 3 4 3
140 164 70 56 83 34 265 109 276 200 216 233 218 224 222 220 219 220 221 221 220 218 220 220 221 221 222 224 226 227 229 231 234 239 243 252 270 290 304 315 331 343 344 346 346 348 350 349 351
28 49 348 358 10 224 181 13 248 246 231 227 224 225 222 220 219 219 217 217 216 217 218 220 222 222 224 228 230 232 235 238 241 244 249 254 261 274 289 301 311 320 325 329 331 332 334 331 333
7 102 144 243 271 273 8 238 247 214 239 243 248 245 234 226 224 223 221 220 220 220 221 222 223 225 225 229 231 233 236 239 244 246 251 254 261 268 277 288 299 306 311 315 317 318 319 318 322
274 31 106 99 104 24 246 279 287 241 253 237 240 231 232 226 225 226 224 224 223 222 223 225 226 228 226 230 232 233 234 235 240 244 249 253 259 267 271 279 289 295 301 305 307 310 311 312 315
166 153 62 7 322 299 279 278 240 277 267 228 230 232 231 230 226 227 228 228 228 228 228 228 229 231 231 230 231 233 234 235 237 238 244 251 255 259 265 272 282 288 292 297 299 303 305 306 308
148 207 55 124 153 206 291 252 216 222 239 239 242 240 239 232 231 229 228 230 231 232 231 231 231 230 230 230 231 234 234 236 239 242 244 248 252 255 262 271 278 284 288 291 292 296 299 302 304
183 189 169 138 231 233 174 268 180 236 204 224 272 268 258 246 242 240 237 234 233 233 234 234 233 234 233 233 234 235 236 236 239 242 246 248 252 255 263 270 277 283 287 289 289 292 295 298 300